Tracking 28125 objects as of 2-Oct-2023
HD Live streaming from Space Station
objects crossing your sky now

STARLINK-3122

Track STARLINK-3122 now!
10-day predictions
STARLINK-3122 is classified as:


NORAD ID: 49445
Int'l Code: 2021-104AP
Perigee: 550.7 km
Apogee: 552.8 km
Inclination: 53.2 °
Period: 95.5 minutes
Semi major axis: 6922 km
RCS: Unknown
Launch date: November 13, 2021
Source: United States (US)
Launch site: AIR FORCE EASTERN TEST RANGE (AFETR)
Your satellite tracking list
Your tracking list is empty




NASA's NSSDC Master Catalog

Two Line Element Set (TLE):
1 49445U 21104AP  23275.32606087  .00027448  00000-0  18128-2 0  9992
2 49445  53.2161 252.0140 0001548  94.4903 265.6265 15.07244443105582
Source of the keplerian elements: AFSPC